[[{"header":{"parameterUnit":"m.s-1","parameterCategory":1,"la1":30.2991,"la2":30.254,"lo1":-89.0895,"lo2":-89.0444,"dy":0.0017,"dx":0.0017,"nx":28,"ny":28,"refTime":"2023-09-07T21:00:00:Z","depth":0,"parameterNumber":2,"parameterNumberName":"U-component_of_WINDS"},"data":[0,0,0,0,0,0,0,0,0,0,0,0,0,0,0,0,0,0,0,0,0,0,0,0,0,0,0,0,0,0,0,0,0,0,0,0,0,0,0,0,0,0,0,0,0,0,0,0,0,0,0,0,0,0,0,0,0,0,0.3092,0.3093,0,0.3164,0.3165,0.3166,0.3183,0.3183,0.3182,0.3182,0.326,0.3262,0.3265,0,0,0,0,0,0,0,0,0,0,0,0,0,0.2974,0.2976,0.3092,0.3093,0.3094,0.3164,0.3165,0.3166,0.3183,0.3183,0.3182,0.3182,0.3259,0.3262,0.3265,0,0,0,0,0,0,0,0,0,0,0,0,0,0.3034,0.2976,0.3092,0.3111,0.3113,0.3164,0.3165,0.3167,0.3184,0.3183,0.3182,0.3181,0.3258,0.3262,0.3266,0.3304,0,0,0.3277,0.3279,0,0,0,0,0,0,0,0,0.303,0.3038,0.3107,0.311,0.3113,0.3164,0.3152,0.3213,0.3184,0.3157,0.3182,0.3181,0.3229,0.3235,0.325,0.3308,0.3311,0.3278,0.328,0.3281,0.3283,0,0,0,0,0,0,0,0.3026,0.3035,0.3121,0.3108,0.3112,0.3117,0.3125,0.3164,0.3196,0.3159,0.3161,0.3169,0.323,0.3247,0.3252,0.3312,0.3277,0.3281,0.3283,0.3285,0.3406,0.3407,0,0,0,0,0,0,0.3018,0.3031,0.3119,0.3123,0.3069,0.312,0.3129,0.3148,0.3196,0.3202,0.3169,0.3169,0.324,0.3248,0.3255,0.3304,0.3281,0.3285,0.3287,0.3405,0.3406,0.3407,0,0,0,0,0,0,0.3015,0.3026,0.3116,0.3078,0.309,0.3123,0.3145,0.315,0.3167,0.3203,0.321,0.318,0.324,0.325,0.3292,0.3307,0.3287,0.329,0.3404,0.3405,0.3406,0.3401,0,0,0,0,0,0,0.3012,0.3024,0.3038,0.3078,0.3091,0.315,0.3146,0.3152,0.3173,0.3173,0.3215,0.3221,0.324,0.3286,0.3295,0.3312,0.3293,0.3402,0.3404,0.3406,0.34,0.3402,0.3404,0,0,0,0,0,0.3008,0.3035,0.3039,0.3049,0.3109,0.315,0.3158,0.3179,0.3174,0.3189,0.3213,0.322,0.3303,0.329,0.3301,0.3318,0.3402,0.3404,0.3406,0.3399,0.3401,0.3404,0,0,0,0,0,0,0.2997,0.304,0.3045,0.3086,0.3114,0.3153,0.3173,0.3181,0.3212,0.3211,0.3236,0.3246,0.3286,0.3307,0.3291,0.3359,0.3353,0.3357,0.3344,0.3346,0.3348,0.3343,0.3296,0,0,0,0,0,0.3,0.3028,0.3065,0.3097,0.3111,0.3139,0.3158,0.3171,0.3202,0.3214,0.3241,0.3272,0.3306,0.3327,0.336,0.3403,0.3413,0.342,0.3422,0.3424,0.3427,0.3452,0.3456,0.3414,0.3414,0.3414,0,0,0.3005,0.3032,0.3049,0.3095,0.3119,0.3149,0.3149,0.3181,0.3204,0.322,0.3261,0.3281,0.3318,0.3361,0.3381,0.3379,0.3441,0.3426,0.3427,0.343,0.3455,0.3459,0.3462,0.3415,0.3415,0.3415,0,0,0.303,0.3053,0.3083,0.3106,0.3141,0.316,0.3167,0.3205,0.3219,0.326,0.3273,0.3301,0.3358,0.3384,0.3404,0.3439,0.3448,0.345,0.346,0.3484,0.3487,0.349,0.3503,0.3508,0.3453,0.3453,0.3453,0,0.3033,0.3078,0.3097,0.3129,0.3149,0.3163,0.3194,0.3217,0.3261,0.3276,0.3273,0.3344,0.337,0.3419,0.3428,0.3443,0.3453,0.3445,0.3485,0.3488,0.3491,0.3504,0.3509,0.3453,0.3453,0.3453,0.3453,0,0.308,0.3111,0.313,0.3172,0.3195,0.3226,0.3252,0.3273,0.3284,0.3304,0.3346,0.3377,0.3416,0.3429,0.3441,0.348,0.3478,0.3479,0.3474,0.3495,0.3508,0.3513,0.3453,0.3453,0.3453,0.3453,0,0,0.31,0.3152,0.3159,0.3178,0.3218,0.3244,0.3276,0.3313,0.3331,0.3362,0.339,0.3438,0.344,0.3463,0.3478,0.3499,0.3526,0.3498,0.3499,0.3502,0.3572,0.357,0.3576,0.3531,0.3532,0.3533,0.3569,0,0.3131,0.3187,0.3206,0.3254,0.3283,0.3297,0.3326,0.3354,0.3374,0.3403,0.3425,0.3458,0.3457,0.3472,0.3493,0.3518,0.354,0.3515,0.3559,0.356,0.355,0.3582,0.3581,0.3613,0.3574,0.3575,0.3575,0,0.3174,0.3204,0.3254,0.3291,0.3304,0.3329,0.3365,0.3392,0.3425,0.3438,0.3464,0.3477,0.3513,0.3505,0.3555,0.3538,0.3557,0.3572,0.3574,0.3579,0.3569,0.3589,0.3624,0.3629,0.3583,0.3582,0.3582,0,0.3185,0.3238,0.3275,0.3291,0.3335,0.3352,0.3371,0.3403,0.3425,0.3457,0.3471,0.3507,0.3527,0.3556,0.3579,0.3571,0.3627,0.3621,0.364,0.3639,0.3651,0.365,0.369,0.3663,0.3663,0.3663,0.3663,0,0.3217,0.3247,0.328,0.3303,0.3338,0.336,0.3394,0.3415,0.3443,0.3471,0.3486,0.3512,0.3541,0.3571,0.359,0.3629,0.3638,0.365,0.3655,0.3649,0.3647,0.3662,0.3661,0.3664,0.3664,0.3663,0.3663,0,0.3235,0.3258,0.3299,0.3337,0.3347,0.3372,0.3405,0.3428,0.3448,0.3483,0.3493,0.3525,0.3561,0.3587,0.3635,0.3647,0.3689,0.3694,0.3678,0.368,0.3697,0.3695,0.3748,0.3757,0.3723,0.3724,0.3724,0,0.3254,0.3278,0.3318,0.3337,0.3356,0.3387,0.3408,0.3432,0.3454,0.3493,0.3512,0.355,0.3581,0.3639,0.3667,0.3703,0.3709,0.3725,0.3715,0.3708,0.371,0.3708,0.3711,0.3727,0.3727,0.3727,0.3727,0,0.3286,0.3296,0.3326,0.336,0.3385,0.3414,0.3442,0.3458,0.3486,0.351,0.3547,0.3571,0.3619,0.3656,0.3696,0.3717,0.3727,0.373,0.3737,0.3731,0.3721,0.3727,0.3682,0.3729,0.3729,0.3729,0.3729,0.3729,0.3306,0.3327,0.3359,0.3392,0.3416,0.3442,0.3466,0.3488,0.3519,0.3559,0.3571,0.361,0.3643,0.3697,0.3719,0.375,0.3749,0.3758,0.3761,0.3763,0.3762,0.3715,0.3757,0.3757,0.3757,0.3757,0.3757,0,0.3338,0.3359,0.339,0.3429,0.3455,0.3461,0.3493,0.3515,0.3548,0.3578,0.3608,0.3651,0.3687,0.3718,0.3756,0.3775,0.3781,0.3784,0.3783,0.3788,0.3761,0.3752,0.3779,0.3779,0.3779,0.3779,0.3779,0.3779,0.3359,0.3396,0.341,0.3459,0.3481,0.3518,0.3535,0.356,0.3584,0.3631,0.366,0.368,0.3711,0.3751,0.3785,0.3793,0.3806,0.3809,0.3818,0.3792,0.379,0.3788,0.3779,0.3811,0.3811,0.3843,0.3843,0.3843]},{"header":{"parameterUnit":"m.s-1","parameterCategory":1,"la1":30.2991,"la2":30.254,"lo1":-89.0895,"lo2":-89.0444,"dy":0.0017,"dx":0.0017,"nx":28,"ny":28,"refTime":"2023-09-07T21:00:00:Z","depth":0,"parameterNumber":3,"parameterNumberName":"V-component_of_WINDS"},"data":[0,0,0,0,0,0,0,0,0,0,0,0,0,0,0,0,0,0,0,0,0,0,0,0,0,0,0,0,0,0,0,0,0,0,0,0,0,0,0,0,0,0,0,0,0,0,0,0,0,0,0,0,0,0,0,0,0,0,2.8855,2.8855,0,2.8898,2.8899,2.8899,2.8895,2.8894,2.8894,2.8893,2.8935,2.8937,2.8939,0,0,0,0,0,0,0,0,0,0,0,0,0,2.8762,2.8764,2.8855,2.8855,2.8856,2.8898,2.8899,2.8899,2.8895,2.8894,2.8893,2.8893,2.8935,2.8937,2.8939,0,0,0,0,0,0,0,0,0,0,0,0,0,2.8804,2.8765,2.8854,2.8859,2.8859,2.8898,2.8899,2.89,2.8895,2.8894,2.8893,2.8892,2.8934,2.8937,2.8939,2.8976,0,0,2.8947,2.8949,0,0,0,0,0,0,0,0,2.8802,2.8807,2.8857,2.8858,2.8859,2.889,2.8882,2.8925,2.8896,2.8882,2.8893,2.8892,2.8921,2.8925,2.8935,2.8978,2.898,2.8948,2.8949,2.895,2.8951,0,0,0,0,0,0,0,2.8799,2.8805,2.8872,2.8858,2.8859,2.8857,2.8862,2.889,2.8906,2.8883,2.8883,2.8888,2.8921,2.8933,2.8936,2.898,2.8948,2.895,2.8952,2.8953,2.905,2.9051,0,0,0,0,0,0,2.8795,2.8803,2.887,2.8873,2.8827,2.8859,2.8865,2.8881,2.8906,2.8909,2.8889,2.8888,2.8929,2.8933,2.8937,2.8979,2.895,2.8953,2.8954,2.9049,2.9051,2.9052,0,0,0,0,0,0,2.8793,2.8801,2.8869,2.8838,2.8846,2.8862,2.8881,2.8883,2.8894,2.8911,2.8913,2.8897,2.8928,2.8934,2.8965,2.898,2.8954,2.8956,2.9048,2.905,2.9051,2.9064,0,0,0,0,0,0,2.8791,2.8801,2.8816,2.8838,2.8848,2.8897,2.8882,2.8884,2.8899,2.8898,2.8919,2.8922,2.8928,2.8962,2.8968,2.8983,2.8958,2.9047,2.9049,2.9051,2.9062,2.9065,2.9068,0,0,0,0,0,2.8787,2.8818,2.8817,2.8825,2.8868,2.8898,2.8904,2.891,2.89,2.8914,2.8924,2.8921,2.8978,2.8965,2.8972,2.8989,2.9046,2.9048,2.9051,2.906,2.9065,2.9068,0,0,0,0,0,0,2.8798,2.8821,2.882,2.886,2.8877,2.8898,2.8916,2.8915,2.8935,2.8933,2.8939,2.8944,2.8975,2.8985,2.8971,2.9023,2.901,2.9014,2.9015,2.9019,2.9022,2.9019,2.8961,0,0,0,0,0,2.8804,2.8828,2.8848,2.888,2.8889,2.8901,2.8915,2.8918,2.8936,2.8943,2.8956,2.8972,2.8993,2.9007,2.9028,2.9063,2.9066,2.9078,2.9081,2.9084,2.9086,2.9102,2.9107,2.9059,2.9059,2.9059,0,0,2.8819,2.8835,2.885,2.8882,2.8896,2.8919,2.8907,2.8933,2.8949,2.8947,2.8977,2.8986,2.9005,2.9038,2.9053,2.9047,2.91,2.9087,2.9088,2.909,2.9105,2.9109,2.9113,2.9061,2.9061,2.906,0,0,2.8856,2.8872,2.8899,2.8912,2.8933,2.894,2.8947,2.8967,2.8973,2.9004,2.9001,2.902,2.9057,2.9069,2.908,2.9118,2.9115,2.9125,2.9141,2.9156,2.916,2.9163,2.9174,2.9178,2.9128,2.9128,2.9128,0,2.8871,2.8906,2.8913,2.8937,2.895,2.8949,2.8975,2.8987,2.9014,2.9022,2.9015,2.9059,2.9072,2.9106,2.9115,2.9125,2.913,2.9122,2.9159,2.9162,2.9166,2.9176,2.918,2.9129,2.9129,2.9129,2.9128,0,2.8921,2.8945,2.8964,2.8989,2.9004,2.903,2.9038,2.9052,2.9054,2.9061,2.909,2.9105,2.9126,2.9135,2.9137,2.9168,2.9163,2.9158,2.9145,2.9171,2.918,2.9184,2.913,2.913,2.9129,2.9129,0,0,2.8966,2.8993,2.8999,2.9009,2.903,2.9048,2.9072,2.9093,2.9104,2.9122,2.914,2.917,2.9164,2.9176,2.9179,2.9193,2.9218,2.9185,2.9186,2.9189,2.9249,2.9252,2.9257,2.9216,2.9217,2.9218,2.9247,0,2.9003,2.9046,2.9051,2.9088,2.9108,2.9106,2.9126,2.914,2.9147,2.9164,2.9171,2.9191,2.9184,2.919,2.9204,2.9212,2.923,2.921,2.9231,2.9231,2.9224,2.9262,2.9266,2.9293,2.9251,2.9252,2.9252,0,2.9052,2.907,2.9109,2.9124,2.9133,2.9151,2.9169,2.9186,2.9201,2.9205,2.9217,2.9218,2.924,2.9227,2.9255,2.9242,2.925,2.9255,2.9256,2.9257,2.9242,2.9261,2.9302,2.9305,2.9259,2.9258,2.9258,0,2.9077,2.9111,2.9137,2.9146,2.9166,2.9178,2.9186,2.92,2.9212,2.9228,2.9234,2.9253,2.9262,2.9275,2.9279,2.927,2.9306,2.9295,2.9308,2.9308,2.9315,2.9314,2.9355,2.9324,2.9324,2.9324,2.9324,0,2.9116,2.9139,2.9148,2.9165,2.9189,2.9194,2.9218,2.9226,2.9238,2.9254,2.9254,2.9269,2.9274,2.9289,2.9293,2.9314,2.9319,2.9321,2.9321,2.932,2.9319,2.9325,2.9322,2.9325,2.9325,2.9324,2.9324,0,2.9148,2.9155,2.9184,2.9199,2.9203,2.9221,2.9233,2.9248,2.9254,2.9274,2.9279,2.9288,2.9305,2.9311,2.9333,2.9335,2.9359,2.9359,2.9354,2.9353,2.9366,2.9363,2.941,2.9415,2.9382,2.9383,2.9383,0,2.9171,2.9188,2.9205,2.9216,2.9225,2.9243,2.9254,2.9259,2.927,2.9287,2.9298,2.9316,2.933,2.9358,2.9365,2.9381,2.938,2.9394,2.9382,2.9379,2.9377,2.9375,2.9375,2.9396,2.9397,2.9397,2.9397,0,2.921,2.9213,2.9229,2.9246,2.9259,2.9273,2.9286,2.9295,2.9301,2.9314,2.9332,2.9343,2.9364,2.938,2.9395,2.9402,2.94,2.9401,2.9405,2.9403,2.9398,2.9398,2.9358,2.94,2.94,2.9399,2.9399,2.9399,2.9237,2.9251,2.9264,2.9282,2.9292,2.9303,2.9317,2.9324,2.9339,2.9357,2.9359,2.9377,2.9389,2.9409,2.9417,2.943,2.9426,2.9431,2.9433,2.9433,2.9433,2.9397,2.9433,2.9433,2.9433,2.9433,2.9433,0,2.9273,2.9282,2.9298,2.9315,2.9329,2.9326,2.934,2.935,2.9367,2.9378,2.9391,2.941,2.9426,2.9434,2.9449,2.9458,2.9457,2.9461,2.946,2.9461,2.9438,2.9432,2.9461,2.9461,2.9461,2.9461,2.9461,2.9461,2.9294,2.9317,2.932,2.9347,2.9355,2.9373,2.938,2.939,2.9399,2.942,2.9433,2.9439,2.9448,2.9463,2.9476,2.9478,2.9482,2.9487,2.9488,2.9466,2.9463,2.946,2.9454,2.9488,2.9488,2.951,2.951,2.951]}]]